Regional Weather Roundup
Issued by NWS

Home | Current Version | Previous Version | Text Only | Print | Product List | Glossary Off
Versions: 1 2 3 4 5 6 7 8 9 10 11 12 13 14 15 16 17 18 19 20 21 22 23 24 25 26 27 28 29 30 31 32 33 34 35 36 37 38 39 40 41 42 43 44 45 46 47 48 49 50

338
ASUS43 KLMK 070010
RWRKY
KENTUCKY REGIONAL WEATHER ROUNDUP
NATIONAL WEATHER SERVICE LOUISVILLE KY
700 PM EST SAT FEB 06 2016

NOTE "FAIR" INDICATES FEW OR NO CLOUDS BELOW 12,000 FEET
WITH NO SIGNIFICANT WEATHER AND/OR OBSTRUCTIONS TO VISIBILITY.

KYZ001>023-026-027-061>063-070>075-070100-
WESTERN AND SOUTH CENTRAL KENTUCKY

CITY           SKY/WX    TMP DP  RH WIND       PRES   REMARKS
PADUCAH        CLEAR     48  21  34 SW5       30.27S
HENDERSON      CLEAR     45  25  45 CALM      30.25S
OWENSBORO      CLEAR     46  27  48 CALM      30.26F
HOPKINSVILLE   CLEAR     47  20  35 W2        30.28R
BOWLING GREEN  CLEAR     47  23  38 SW5       30.28S
GLASGOW        MOCLDY    44  23  44 CALM      30.27S
$$

KYZ024-025-028>034-038-045-046-053-070100-
NORTH CENTRAL KENTUCKY

CITY           SKY/WX    TMP DP  RH WIND       PRES   REMARKS
LOUISVILLE/SDF PTCLDY    48  23  37 CALM      30.26R
LOUISVILLE/LOU CLEAR     46  25  43 CALM      30.27R
FORT KNOX      CLEAR     42  23  45 CALM      30.25R
$$

KYZ035>037-039>044-047>052-055>060-089>105-070100-
NORTHEAST KENTUCKY

CITY           SKY/WX    TMP DP  RH WIND       PRES   REMARKS
LEXINGTON      CLEAR     43  23  45 CALM      30.27R
COVINGTON      CLEAR     42  22  44 SW3       30.25R
FRANKFORT      CLEAR     37  23  56 CALM      30.26R
$$

KYZ054-064>069-076>088-106>120-070100-
SOUTHEAST KENTUCKY

CITY           SKY/WX    TMP DP  RH WIND       PRES   REMARKS
JACKSON        CLOUDY    45  20  36 W3        30.26R
LONDON         PTCLDY    43  19  38 SW3       30.27S
SOMERSET       CLEAR     41  23  48 CALM      30.29S
MIDDLESBORO    PTCLDY    40  26  57 CALM      30.28F
MONTICELLO     PTCLDY    33  23  66 NE7       30.30S WCI  27
$$





USA.gov is the U.S. government's official web portal to all federal, state and local government web resources and services.